Location: Observatorio del Centro Ecologico de Sonora
(29.0667°N, 110.9333°W)
Time: 21:40:02
(UTC-07:00)

ISS - Visible Passes

Search period start: 02 September 2014 00:00
Search period end: 12 September 2014 00:00
Orbit: 413 x 419 km, 51.6° (Epoch: 02 September)

Date Brightness Start Highest point End Pass type
(mag) Time Alt. Az. Time Alt. Az. Time Alt. Az.
08 Sep -0.5 05:03:10 10° SSE 05:05:15 16° SE 05:07:21 10° E visible
10 Sep -2.9 05:02:12 19° SSW 05:04:22 61° SE 05:07:39 10° NE visible
11 Sep -1.4 04:16:05 27° ESE 04:16:05 27° ESE 04:18:38 10° ENE visible
